Monticello, AR

5:03 AM CDT on October 20, 2017 (GMT -0500)
Monticello Municipal-Ellis

Weather History for KLLQ - November, 2012

Change the Weather History Date:

Wednesday, November 28, 2012

  Actual Average Record
Temperature  
Mean Temperature 44 °F -  
Max Temperature 59 °F 58 °F 81 °F (1989)
Min Temperature 30 °F 37 °F 16 °F (1959)
Degree Days  
Heating Degree Days 20    
Moisture  
Dew Point 31 °F    
Average Humidity 69    
Maximum Humidity 92    
Minimum Humidity 29    
Precipitation  
Precipitation 0.00 in - - ()
Sea Level Pressure  
Sea Level Pressure 30.42 in    
Wind  
Wind Speed 1 mph (ESE)    
Max Wind Speed 5 mph    
Max Gust Speed -    
Visibility 10 miles    
Events      
Averages and records for this station are not official NWS values.
T = Trace of Precipitation, MM = Missing Value Source: NWS Daily Summary

Daily Weather History Graph

Daily Weather History Graph

Search for Another Location

Airport or City:

Trip Planner

Search our weather history database for the weather conditions in past years. The results will help you decide how hot, cold, wet, or windy it might be!

Date:

Astronomy

Nov. 28, 2012 Rise Set
Actual Time 6:51 AM CST 4:58 PM CST
Civil Twilight 6:24 AM CST 5:26 PM CST
Nautical Twilight 5:53 AM CST 5:56 PM CST
Astronomical Twilight 5:23 AM CST 6:26 PM CST
Moon 5:14 PM CST (11/28) 6:49 AM CST (11/28)
Length of Visible Light 11h 01m
Length of Day
10h 07m
Full, 100% of the Moon is Illuminated
Nov 28
Full
Dec 6
Last Quarter
Dec 13
New
Dec 19
First Quarter
Dec 28
Full

Hourly Weather History & Observations

Time (CST) Temp. Windchill Dew Point Humidity Pressure Visibility Wind Dir Wind Speed Gust Speed Precip Events Conditions
12:53 AM 32.0 °F - 28.9 °F 88% 30.40 in 10.0 mi Calm Calm - N/A   Clear
1:53 AM 32.0 °F - 28.9 °F 88% 30.39 in 10.0 mi Calm Calm - N/A   Clear
2:53 AM 30.0 °F - 28.0 °F 92% 30.40 in 10.0 mi Calm Calm - N/A   Clear
3:53 AM 30.9 °F - 28.0 °F 89% 30.39 in 10.0 mi Calm Calm - N/A   Clear
4:53 AM 32.0 °F - 28.9 °F 88% 30.41 in 10.0 mi Calm Calm - N/A   Clear
5:53 AM 30.9 °F - 28.0 °F 89% 30.44 in 9.0 mi Calm Calm - N/A   Clear
6:53 AM 30.0 °F - 27.0 °F 88% 30.46 in 9.0 mi Calm Calm - N/A   Clear
7:53 AM 32.0 °F - 30.0 °F 92% 30.49 in 7.0 mi Calm Calm - N/A   Clear
8:53 AM 39.9 °F 37.8 °F 34.0 °F 79% 30.50 in 10.0 mi East 3.5 mph - N/A   Clear
9:53 AM 45.0 °F 42.6 °F 35.1 °F 68% 30.51 in 10.0 mi ESE 4.6 mph - N/A   Clear
10:53 AM 50.0 °F - 34.0 °F 54% 30.50 in 10.0 mi Calm Calm - N/A   Clear
11:53 AM 53.1 °F - 33.1 °F 47% 30.46 in 10.0 mi Variable 3.5 mph - N/A   Clear
12:53 PM 55.9 °F - 32.0 °F 40% 30.43 in 10.0 mi Variable 3.5 mph - N/A   Clear
1:53 PM 57.9 °F - 30.9 °F 36% 30.40 in 10.0 mi Variable 3.5 mph - N/A   Clear
2:53 PM 59.0 °F - 27.0 °F 29% 30.38 in 10.0 mi Variable 3.5 mph - N/A   Clear
3:53 PM 57.0 °F - 28.0 °F 33% 30.38 in 10.0 mi East 3.5 mph - N/A   Clear
4:53 PM 51.1 °F - 32.0 °F 48% 30.38 in 10.0 mi East 3.5 mph - N/A   Clear
5:53 PM 46.9 °F - 32.0 °F 56% 30.38 in 10.0 mi Calm Calm - N/A   Clear
6:53 PM 44.1 °F - 34.0 °F 68% 30.39 in 10.0 mi Calm Calm - N/A   Clear
7:53 PM 41.0 °F - 32.0 °F 70% 30.39 in 10.0 mi Calm Calm - N/A   Clear
8:53 PM 39.0 °F - 30.9 °F 73% 30.39 in 10.0 mi Calm Calm - N/A   Clear
9:53 PM 36.0 °F 33.3 °F 30.0 °F 79% 30.38 in 10.0 mi SE 3.5 mph - N/A   Clear
10:53 PM 35.1 °F - 30.0 °F 82% 30.38 in 10.0 mi Calm Calm - N/A   Clear
11:53 PM 36.0 °F - 30.0 °F 79% 30.36 in 10.0 mi Calm Calm - N/A   Clear